Time,TemperatureF,DewpointF,PressureIn,WindDirection,WindDirectionDegrees,WindSpeedMPH,WindSpeedGustMPH,Humidity,HourlyPrecipIn,Conditions,Clouds,dailyrainin,SoftwareType,DateUTC
2013-06-28 00:14:00,70.6,46.0,29.86,East,81,0.0,0.0,42,0.00,,,0.00,weatherlink.com 1.10,2013-06-28 06:14:00,
2013-06-28 00:29:00,69.7,47.0,29.86,East,81,0.0,0.0,44,0.00,,,0.00,weatherlink.com 1.10,2013-06-28 06:29:00,
2013-06-28 00:44:00,69.2,44.0,29.86,East,81,0.0,0.0,41,0.00,,,0.00,weatherlink.com 1.10,2013-06-28 06:44:00,
2013-06-28 00:59:00,69.1,45.0,29.87,East,81,0.0,0.0,42,0.00,,,0.00,weatherlink.com 1.10,2013-06-28 06:59:00,
2013-06-28 01:14:00,68.7,47.0,29.86,East,81,0.0,0.0,46,0.00,,,0.00,weatherlink.com 1.10,2013-06-28 07:14:00,
2013-06-28 01:29:00,68.3,47.0,29.86,East,81,0.0,0.0,47,0.00,,,0.00,weatherlink.com 1.10,2013-06-28 07:29:00,
2013-06-28 01:44:00,67.9,44.0,29.87,East,93,0.0,2.0,42,0.00,,,0.00,weatherlink.com 1.10,2013-06-28 07:44:00,
2013-06-28 01:59:00,69.5,42.0,29.86,SSE,165,0.0,1.0,37,0.00,,,0.00,weatherlink.com 1.10,2013-06-28 07:59:00,
2013-06-28 02:14:00,70.3,41.0,29.85,SSE,165,0.0,1.0,35,0.00,,,0.00,weatherlink.com 1.10,2013-06-28 08:14:00,
2013-06-28 02:29:00,70.3,42.0,29.83,SSW,209,0.0,1.0,36,0.00,,,0.00,weatherlink.com 1.10,2013-06-28 08:29:00,
2013-06-28 02:44:00,69.9,42.0,29.83,SSW,209,0.0,0.0,36,0.00,,,0.00,weatherlink.com 1.10,2013-06-28 08:44:00,
2013-06-28 02:59:00,68.8,43.0,29.83,SSW,209,0.0,0.0,40,0.00,,,0.00,weatherlink.com 1.10,2013-06-28 08:59:00,
2013-06-28 03:14:00,67.4,43.0,29.83,SSW,209,0.0,1.0,42,0.00,,,0.00,weatherlink.com 1.10,2013-06-28 09:14:00,
2013-06-28 03:29:00,66.1,43.0,29.83,SSW,209,0.0,0.0,44,0.00,,,0.00,weatherlink.com 1.10,2013-06-28 09:29:00,
2013-06-28 03:44:00,66.0,42.0,29.83,SW,219,1.0,2.0,42,0.00,,,0.00,weatherlink.com 1.10,2013-06-28 09:44:00,
2013-06-28 03:59:00,66.6,43.0,29.83,West,281,0.0,3.0,42,0.00,,,0.00,weatherlink.com 1.10,2013-06-28 09:59:00,
2013-06-28 04:14:00,67.8,42.0,29.83,West,277,0.0,2.0,39,0.00,,,0.00,weatherlink.com 1.10,2013-06-28 10:14:00,
2013-06-28 04:29:00,67.2,42.0,29.83,West,277,0.0,0.0,40,0.00,,,0.00,weatherlink.com 1.10,2013-06-28 10:29:00,
2013-06-28 04:44:00,67.5,43.0,29.84,West,277,0.0,0.0,41,0.00,,,0.00,weatherlink.com 1.10,2013-06-28 10:44:00,
2013-06-28 04:59:00,66.7,44.0,29.83,West,277,0.0,0.0,44,0.00,,,0.00,weatherlink.com 1.10,2013-06-28 10:59:00,
2013-06-28 05:14:00,65.2,44.0,29.83,West,277,0.0,0.0,47,0.00,,,0.00,weatherlink.com 1.10,2013-06-28 11:14:00,
2013-06-28 05:29:00,63.9,45.0,29.84,West,277,0.0,0.0,51,0.00,,,0.00,weatherlink.com 1.10,2013-06-28 11:29:00,
2013-06-28 05:45:00,62.6,45.0,29.84,West,277,0.0,0.0,52,0.00,,,0.00,weatherlink.com 1.10,2013-06-28 11:45:00,
2013-06-28 06:00:00,61.8,46.0,29.85,West,277,0.0,1.0,56,0.00,,,0.00,weatherlink.com 1.10,2013-06-28 12:00:00,
2013-06-28 06:15:00,61.4,46.0,29.85,West,277,0.0,0.0,58,0.00,,,0.00,weatherlink.com 1.10,2013-06-28 12:15:00,
2013-06-28 06:30:00,61.5,47.0,29.86,West,277,0.0,0.0,59,0.00,,,0.00,weatherlink.com 1.10,2013-06-28 12:30:00,
2013-06-28 06:45:00,63.2,48.0,29.86,West,277,0.0,0.0,59,0.00,,,0.00,weatherlink.com 1.10,2013-06-28 12:45:00,
2013-06-28 07:00:00,66.6,48.0,29.86,West,278,0.0,1.0,52,0.00,,,0.00,weatherlink.com 1.10,2013-06-28 13:00:00,
2013-06-28 07:15:00,68.1,48.0,29.86,West,276,0.0,3.0,49,0.00,,,0.00,weatherlink.com 1.10,2013-06-28 13:15:00,
2013-06-28 07:30:00,68.9,49.0,29.86,West,267,0.0,3.0,49,0.00,,,0.00,weatherlink.com 1.10,2013-06-28 13:30:00,
2013-06-28 07:45:00,69.7,49.0,29.86,NNE,13,0.0,2.0,48,0.00,,,0.00,weatherlink.com 1.10,2013-06-28 13:45:00,
2013-06-28 08:00:00,70.4,50.0,29.86,NNE,14,0.0,2.0,49,0.00,,,0.00,weatherlink.com 1.10,2013-06-28 14:00:00,
2013-06-28 08:15:00,71.5,50.0,29.86,NNE,16,0.0,3.0,46,0.00,,,0.00,weatherlink.com 1.10,2013-06-28 14:15:00,
2013-06-28 08:30:00,72.4,50.0,29.86,NE,36,2.0,2.0,45,0.00,,,0.00,weatherlink.com 1.10,2013-06-28 14:30:00,
2013-06-28 08:45:00,73.3,50.0,29.86,NE,35,0.0,3.0,44,0.00,,,0.00,weatherlink.com 1.10,2013-06-28 14:45:00,
2013-06-28 09:15:00,75.6,50.0,29.86,NNW,345,0.0,4.0,41,0.00,,,0.00,weatherlink.com 1.10,2013-06-28 15:15:00,
2013-06-28 09:30:00,76.4,50.0,29.86,NE,43,0.0,3.0,40,0.00,,,0.00,weatherlink.com 1.10,2013-06-28 15:30:00,
2013-06-28 09:45:00,77.1,51.0,29.86,North,350,0.0,4.0,40,0.00,,,0.00,weatherlink.com 1.10,2013-06-28 15:45:00,
2013-06-28 10:00:00,78.4,51.0,29.86,NNE,32,0.0,3.0,38,0.00,,,0.00,weatherlink.com 1.10,2013-06-28 16:00:00,
2013-06-28 10:15:00,79.4,49.0,29.86,NNE,27,1.0,4.0,35,0.00,,,0.00,weatherlink.com 1.10,2013-06-28 16:15:00,
2013-06-28 10:30:00,79.9,48.0,29.86,NE,51,2.0,5.0,33,0.00,,,0.00,weatherlink.com 1.10,2013-06-28 16:30:00,
2013-06-28 10:45:00,80.7,48.0,29.86,ENE,60,1.0,6.0,32,0.00,,,0.00,weatherlink.com 1.10,2013-06-28 16:45:00,
2013-06-28 11:00:00,81.9,50.0,29.85,NNE,22,2.0,7.0,33,0.00,,,0.00,weatherlink.com 1.10,2013-06-28 17:00:00,
2013-06-28 11:15:00,82.0,51.0,29.86,NNE,30,0.0,7.0,34,0.00,,,0.00,weatherlink.com 1.10,2013-06-28 17:15:00,
2013-06-28 11:30:00,82.6,50.0,29.86,North,360,1.0,6.0,32,0.00,,,0.00,weatherlink.com 1.10,2013-06-28 17:30:00,
2013-06-28 11:45:00,82.6,49.0,29.85,ENE,63,2.0,6.0,31,0.00,,,0.00,weatherlink.com 1.10,2013-06-28 17:45:00,
2013-06-28 12:00:00,83.2,51.0,29.85,NNE,27,1.0,7.0,33,0.00,,,0.00,weatherlink.com 1.10,2013-06-28 18:00:00,
2013-06-28 12:15:00,83.4,51.0,29.85,North,355,1.0,8.0,33,0.00,,,0.00,weatherlink.com 1.10,2013-06-28 18:15:00,
2013-06-28 12:30:00,84.1,52.0,29.84,NNE,17,2.0,8.0,33,0.00,,,0.00,weatherlink.com 1.10,2013-06-28 18:30:00,
2013-06-28 12:45:00,84.3,55.0,29.84,North,355,2.0,7.0,36,0.00,,,0.00,weatherlink.com 1.10,2013-06-28 18:45:00,
2013-06-28 13:01:00,84.7,53.0,29.83,NNW,344,2.0,6.0,34,0.00,,,0.00,weatherlink.com 1.10,2013-06-28 19:01:00,
2013-06-28 13:16:00,84.8,52.0,29.83,NNW,346,1.0,7.0,32,0.00,,,0.00,weatherlink.com 1.10,2013-06-28 19:16:00,
2013-06-28 13:31:00,85.4,53.0,29.82,NE,42,4.0,6.0,33,0.00,,,0.00,weatherlink.com 1.10,2013-06-28 19:31:00,
2013-06-28 13:46:00,86.2,53.0,29.82,NNE,12,3.0,6.0,32,0.00,,,0.00,weatherlink.com 1.10,2013-06-28 19:46:00,
2013-06-28 14:01:00,86.4,54.0,29.81,WNW,292,2.0,5.0,33,0.00,,,0.00,weatherlink.com 1.10,2013-06-28 20:01:00,
2013-06-28 14:16:00,86.6,51.0,29.81,NNE,19,1.0,5.0,29,0.00,,,0.00,weatherlink.com 1.10,2013-06-28 20:16:00,
2013-06-28 14:31:00,87.7,52.0,29.81,NNE,21,2.0,7.0,29,0.00,,,0.00,weatherlink.com 1.10,2013-06-28 20:31:00,
2013-06-28 14:46:00,87.5,51.0,29.80,East,90,2.0,8.0,28,0.00,,,0.00,weatherlink.com 1.10,2013-06-28 20:46:00,
2013-06-28 15:01:00,87.9,52.0,29.80,NNW,346,2.0,9.0,29,0.00,,,0.00,weatherlink.com 1.10,2013-06-28 21:01:00,
2013-06-28 15:16:00,87.2,52.0,29.79,ENE,62,1.0,6.0,30,0.00,,,0.00,weatherlink.com 1.10,2013-06-28 21:16:00,
2013-06-28 15:31:00,88.6,53.0,29.79,NNE,28,3.0,7.0,30,0.00,,,0.00,weatherlink.com 1.10,2013-06-28 21:31:00,
2013-06-28 15:46:00,89.0,54.0,29.78,NE,34,1.0,7.0,30,0.00,,,0.00,weatherlink.com 1.10,2013-06-28 21:46:00,
2013-06-28 16:01:00,89.7,52.0,29.78,NE,52,2.0,6.0,27,0.00,,,0.00,weatherlink.com 1.10,2013-06-28 22:01:00,
2013-06-28 16:16:00,88.7,51.0,29.78,NE,51,2.0,7.0,27,0.00,,,0.00,weatherlink.com 1.10,2013-06-28 22:16:00,
2013-06-28 16:31:00,88.2,52.0,29.78,ENE,59,0.0,6.0,29,0.00,,,0.00,weatherlink.com 1.10,2013-06-28 22:31:00,
2013-06-28 16:46:00,88.1,53.0,29.78,North,355,2.0,3.0,30,0.00,,,0.00,weatherlink.com 1.10,2013-06-28 22:46:00,
2013-06-28 17:01:00,87.8,54.0,29.78,North,5,4.0,5.0,31,0.00,,,0.00,weatherlink.com 1.10,2013-06-28 23:01:00,
2013-06-28 17:16:00,87.9,54.0,29.77,North,9,2.0,6.0,31,0.00,,,0.00,weatherlink.com 1.10,2013-06-28 23:16:00,
2013-06-28 17:31:00,87.3,54.0,29.77,NNE,26,0.0,3.0,32,0.00,,,0.00,weatherlink.com 1.10,2013-06-28 23:31:00,
2013-06-28 17:46:00,87.2,53.0,29.76,North,5,0.0,2.0,31,0.00,,,0.00,weatherlink.com 1.10,2013-06-28 23:46:00,
2013-06-28 18:01:00,87.3,54.0,29.76,NE,36,0.0,3.0,32,0.00,,,0.00,weatherlink.com 1.10,2013-06-29 00:01:00,
2013-06-28 18:16:00,87.3,53.0,29.76,WNW,293,0.0,4.0,31,0.00,,,0.00,weatherlink.com 1.10,2013-06-29 00:16:00,
2013-06-28 18:31:00,86.2,53.0,29.77,WNW,284,2.0,6.0,32,0.00,,,0.00,weatherlink.com 1.10,2013-06-29 00:31:00,
2013-06-28 18:46:00,85.6,53.0,29.77,WNW,288,0.0,4.0,33,0.00,,,0.00,weatherlink.com 1.10,2013-06-29 00:46:00,
2013-06-28 19:01:00,85.2,54.0,29.77,West,275,0.0,2.0,34,0.00,,,0.00,weatherlink.com 1.10,2013-06-29 01:01:00,
2013-06-28 19:16:00,84.5,54.0,29.76,West,275,0.0,1.0,35,0.00,,,0.00,weatherlink.com 1.10,2013-06-29 01:16:00,
2013-06-28 19:31:00,83.4,55.0,29.75,West,275,0.0,2.0,38,0.00,,,0.00,weatherlink.com 1.10,2013-06-29 01:31:00,
2013-06-28 19:46:00,83.9,51.0,29.78,WNW,291,5.0,13.0,32,0.00,,,0.00,weatherlink.com 1.10,2013-06-29 01:46:00,
2013-06-28 20:01:00,86.2,32.0,29.77,West,270,2.0,22.0,14,0.00,,,0.00,weatherlink.com 1.10,2013-06-29 02:01:00,
2013-06-28 20:16:00,85.5,51.0,29.78,East,92,0.0,11.0,30,0.00,,,0.00,weatherlink.com 1.10,2013-06-29 02:16:00,
2013-06-28 20:31:00,83.1,50.0,29.78,SE,144,0.0,4.0,32,0.00,,,0.00,weatherlink.com 1.10,2013-06-29 02:31:00,
2013-06-28 20:46:00,81.9,51.0,29.79,SE,146,0.0,1.0,34,0.00,,,0.00,weatherlink.com 1.10,2013-06-29 02:46:00,
2013-06-28 21:01:00,80.8,51.0,29.80,ENE,77,1.0,3.0,36,0.00,,,0.00,weatherlink.com 1.10,2013-06-29 03:01:00,
2013-06-28 21:16:00,80.3,52.0,29.82,SE,140,1.0,9.0,37,0.00,,,0.00,weatherlink.com 1.10,2013-06-29 03:16:00,
2013-06-28 21:31:00,79.7,51.0,29.82,SE,137,0.0,5.0,37,0.00,,,0.00,weatherlink.com 1.10,2013-06-29 03:31:00,
2013-06-28 21:46:00,79.1,51.0,29.84,SE,136,0.0,5.0,38,0.00,,,0.00,weatherlink.com 1.10,2013-06-29 03:46:00,
2013-06-28 22:01:00,78.7,52.0,29.92,NE,35,6.0,11.0,40,0.00,,,0.00,weatherlink.com 1.10,2013-06-29 04:01:00,
2013-06-28 22:16:00,65.5,56.0,29.93,NNE,28,6.0,18.0,72,0.00,,,0.00,weatherlink.com 1.10,2013-06-29 04:16:00,
2013-06-28 22:31:00,62.4,57.0,29.95,East,96,0.0,9.0,82,0.00,,,0.00,weatherlink.com 1.10,2013-06-29 04:31:00,
2013-06-28 22:47:00,62.7,58.0,29.93,SE,146,2.0,6.0,83,0.00,,,0.00,weatherlink.com 1.10,2013-06-29 04:47:00,
2013-06-28 23:02:00,63.8,58.0,29.91,SSW,203,1.0,3.0,80,0.00,,,0.00,weatherlink.com 1.10,2013-06-29 05:02:00,
2013-06-28 23:17:00,63.4,57.0,29.87,WSW,252,3.0,6.0,79,0.00,,,0.00,weatherlink.com 1.10,2013-06-29 05:17:00,
2013-06-28 23:32:00,64.4,56.0,29.88,WNW,286,5.0,10.0,73,0.00,,,0.00,weatherlink.com 1.10,2013-06-29 05:32:00,
2013-06-28 23:47:00,65.1,55.0,29.89,South,190,0.0,3.0,69,0.00,,,0.00,weatherlink.com 1.10,2013-06-29 05:47:00,